Location: Burtsch�tz
(51.0528°N, 12.1764°E)
Time: 14:35:04
(UTC+00:00)

Feng Yun 1-1 Rocket - Pass Details

Date: 29 October 2020
Orbit: 829 x 934 km, 99.2° (Epoch: 28 November)

Event Time Altitude Azimuth Distance (km) Brightness Sun altitude
Rises 16:40:06 0° 153° (SSE) 3,568 7.3 -8.4°
Reaches altitude 10° 16:42:31 10° 151° (SSE) 2,634 6.6 -8.7°
Maximum altitude 16:48:23 70° 70° (ENE) 994 4.4 -9.6°
Drops below altitude 10° 16:54:18 10° 348° (NNW) 2,647 6.8 -10.6°
Sets 16:56:44 0° 346° (NNW) 3,588 7.5 -10.9°
